Gainesville, FL

4:10 PM EDT on August 25, 2016 (GMT -0400)
Gainesville Regional

Weather History for KGNV - September, 2015

Change the Weather History Date:

Thursday, September 3, 2015

  Actual Average Record
Temperature  
Mean Temperature 83 °F 80 °F  
Max Temperature 92 °F 89 °F 97 °F (1907)
Min Temperature 74 °F 71 °F 61 °F (1972)
Degree Days  
Heating Degree Days 0 0  
Month to date heating degree days 0 0  
Since 1 July heating degree days 0 0  
Cooling Degree Days 18 15  
Month to date cooling degree days 51 45  
Year to date cooling degree days 2327 1989  
Growing Degree Days 32 (Base 50)    
Moisture  
Dew Point 74 °F    
Average Humidity 76    
Maximum Humidity 100    
Minimum Humidity 52    
Precipitation  
Precipitation 0.00 in 0.18 in 1.24 in (1967)
Month to date precipitation 0.12 0.53  
Year to date precipitation 35.49 36.10  
Snow  
Snow 0.00 in 0.00 in 0.00 in ()
Month to date snowfall 0.0 0.0  
Since 1 July snowfall 0.0 0.0  
Since 1 September snowfall 0.0 0.0  
Snow Depth 0.00 in    
Sea Level Pressure  
Sea Level Pressure 29.95 in    
Wind  
Wind Speed 4 mph (WNW)    
Max Wind Speed 14 mph    
Max Gust Speed 18 mph    
Visibility 10 miles    
Events      
T = Trace of Precipitation, MM = Missing Value Source: NWS Daily Summary

Daily Weather History Graph

Daily Weather History Graph

Search for Another Location

Airport or City:

Trip Planner

Search our weather history database for the weather conditions in past years. The results will help you decide how hot, cold, wet, or windy it might be!

Date:

Astronomy

Sep. 03, 2015 Rise Set
Actual Time 7:07 AM EDT 7:49 PM EDT
Civil Twilight 6:43 AM EDT 8:13 PM EDT
Nautical Twilight 6:14 AM EDT 8:41 PM EDT
Astronomical Twilight 5:45 AM EDT 9:10 PM EDT
Moon 11:38 PM EDT (9/3) 12:18 PM EDT (9/3)
Length of Visible Light 13h 30m
Length of Day
12h 41m
Waning Gibbous, 69% of the Moon is Illuminated
Sep 3
Waning Gibbous
Sep 5
Last Quarter
Sep 13
New
Sep 21
First Quarter
Sep 27
Full

Hourly Weather History & Observations

Time (EDT) Temp. Heat Index Dew Point Humidity Pressure Visibility Wind Dir Wind Speed Gust Speed Precip Events Conditions
12:53 AM 77.0 °F - 73.9 °F 90% 29.99 in 10.0 mi WSW 5.8 mph - N/A   Clear
1:53 AM 75.9 °F - 73.9 °F 94% 29.97 in 10.0 mi Calm Calm - N/A   Clear
2:53 AM 75.9 °F - 73.9 °F 94% 29.96 in 10.0 mi Calm Calm - N/A   Clear
3:53 AM 73.9 °F - 73.0 °F 97% 29.95 in 10.0 mi Calm Calm - N/A   Partly Cloudy
4:53 AM 75.0 °F - 73.0 °F 94% 29.95 in 10.0 mi Calm Calm - N/A   Clear
5:53 AM 75.0 °F - 73.0 °F 94% 29.95 in 10.0 mi Calm Calm - N/A   Clear
6:53 AM 75.0 °F - 73.9 °F 96% 29.96 in 8.0 mi West 3.5 mph - N/A   Clear
7:53 AM 77.0 °F - 75.0 °F 94% 29.98 in 7.0 mi Calm Calm - N/A   Clear
8:53 AM 80.1 °F 85.1 °F 75.0 °F 85% 29.99 in 10.0 mi West 9.2 mph - N/A   Clear
9:53 AM 82.9 °F 89.4 °F 73.9 °F 74% 29.99 in 10.0 mi WNW 6.9 mph - N/A   Clear
10:53 AM 84.9 °F 92.1 °F 73.9 °F 69% 29.99 in 10.0 mi NW 5.8 mph - N/A   Clear
11:53 AM 87.1 °F 96.3 °F 75.0 °F 67% 29.99 in 10.0 mi West 8.1 mph - N/A   Clear
12:53 PM 90.0 °F 97.9 °F 73.0 °F 57% 29.96 in 10.0 mi WNW 8.1 mph - N/A   Scattered Clouds
1:53 PM 90.0 °F 97.9 °F 73.0 °F 57% 29.95 in 10.0 mi WNW 6.9 mph - N/A   Partly Cloudy
2:53 PM 90.0 °F 96.9 °F 72.0 °F 55% 29.94 in 10.0 mi NNW 3.5 mph - N/A   Overcast
3:53 PM 91.0 °F 98.2 °F 72.0 °F 53% 29.92 in 10.0 mi NW 5.8 mph - N/A   Clear
4:53 PM 90.0 °F 96.9 °F 72.0 °F 55% 29.90 in 10.0 mi NNW 5.8 mph - N/A   Clear
5:53 PM 86.0 °F 95.1 °F 75.0 °F 70% 29.91 in 10.0 mi WSW 11.5 mph - N/A   Clear
6:53 PM 81.0 °F 86.2 °F 73.9 °F 79% 29.90 in 10.0 mi West 9.2 mph - N/A   Partly Cloudy
7:53 PM 79.0 °F - 73.0 °F 82% 29.90 in 10.0 mi West 6.9 mph - N/A   Clear
8:53 PM 79.0 °F - 73.0 °F 82% 29.92 in 10.0 mi West 3.5 mph - N/A   Clear
9:53 PM 79.0 °F - 73.0 °F 82% 29.94 in 10.0 mi Calm Calm - N/A   Clear
10:53 PM 78.1 °F - 73.9 °F 87% 29.95 in 10.0 mi Calm Calm - N/A   Clear
11:53 PM 78.1 °F - 73.9 °F 87% 29.94 in 10.0 mi Calm Calm - N/A   Clear